Location: Couloutre
(47.4081°N, 3.2259°E)
Time: 22:01:00
(UTC+00:00)

STARLINK-1008 - Pass Details

Date: 27 February 2020
Orbit: 549 x 550 km, 53.0° (Epoch: 05 April)

Event Time Altitude Azimuth Distance (km) Brightness Sun altitude
Rises 18:25:23 0° 280° (W) 2,718 9.1 -10.4°
Reaches altitude 10° 18:27:45 10° 288° (WNW) 1,825 7.6 -10.8°
Maximum altitude 18:31:37 37° 357° (N) 863 4.6 -11.5°
Enters shadow 18:34:43 15° 61° (ENE) 1,552 5.4 -12.0°
